[[{"header":{"parameterUnit":"m.s-1","parameterCategory":1,"la1":30.2991,"la2":30.254,"lo1":-89.0895,"lo2":-89.0444,"dy":0.0017,"dx":0.0017,"nx":28,"ny":28,"refTime":"2024-08-05T09:00:00:Z","depth":0,"parameterNumber":2,"parameterNumberName":"U-component_of_WINDS"},"data":[0,0,0,0,0,0,0,0,0,0,0,0,0,0,0,0,0,0,0,0,0,0,0,0,0,0,0,0,0,0,0,0,0,0,0,0,0,0,0,0,0,0,0,0,0,0,0,0,0,0,0,0,0,0,0,0,0,0,2.8501,2.8502,0,2.8534,2.8535,2.8535,2.8469,2.8467,2.8465,2.8462,2.8496,2.8499,2.8502,0,0,0,0,0,0,0,0,0,0,0,0,0,2.8383,2.8385,2.8501,2.8502,2.8502,2.8534,2.8535,2.8535,2.8469,2.8467,2.8464,2.8462,2.8495,2.8499,2.8502,0,0,0,0,0,0,0,0,0,0,0,0,0,2.8427,2.8386,2.8501,2.8473,2.8471,2.8534,2.8535,2.8535,2.847,2.8467,2.8463,2.846,2.8494,2.8499,2.8503,2.8595,0,0,2.8516,2.8518,0,0,0,0,0,0,0,0,2.8424,2.8431,2.8477,2.8475,2.8473,2.8494,2.8505,2.8555,2.8471,2.847,2.8462,2.8459,2.8498,2.8502,2.8515,2.8597,2.8598,2.8517,2.8519,2.8521,2.8522,0,0,0,0,0,0,0,2.8421,2.8429,2.8514,2.8478,2.8475,2.8459,2.8462,2.8514,2.8502,2.847,2.8465,2.847,2.8497,2.8511,2.8516,2.8598,2.8517,2.852,2.8523,2.8525,2.876,2.8763,0,0,0,0,0,0,2.8422,2.8427,2.8513,2.8515,2.844,2.8464,2.8467,2.8491,2.8501,2.85,2.8473,2.8467,2.8505,2.8511,2.8517,2.8627,2.8521,2.8525,2.8528,2.8756,2.876,2.8764,0,0,0,0,0,0,2.8419,2.843,2.8512,2.847,2.8479,2.847,2.8496,2.8493,2.8508,2.8503,2.8501,2.849,2.8503,2.8511,2.8577,2.8627,2.8527,2.8531,2.8752,2.8757,2.8762,2.8848,0,0,0,0,0,0,2.8416,2.843,2.8464,2.8471,2.8482,2.8571,2.85,2.8496,2.8515,2.8508,2.8519,2.8518,2.8501,2.857,2.8581,2.8631,2.8535,2.8747,2.8754,2.8761,2.884,2.8855,2.8868,0,0,0,0,0,2.8412,2.8486,2.8466,2.8477,2.8524,2.8574,2.858,2.8559,2.852,2.8555,2.8552,2.8517,2.862,2.8578,2.8589,2.8642,2.8744,2.8752,2.876,2.8834,2.8852,2.8868,0,0,0,0,0,0,2.8484,2.8486,2.8464,2.8542,2.8559,2.8563,2.8606,2.8579,2.8607,2.8598,2.8572,2.8575,2.8647,2.865,2.8603,2.8733,2.8675,2.8686,2.8728,2.8745,2.8759,2.8757,2.8538,0,0,0,0,0,2.8509,2.8549,2.8549,2.8618,2.8627,2.8616,2.8636,2.8619,2.8635,2.8641,2.8644,2.866,2.8697,2.8721,2.8753,2.884,2.8843,2.8882,2.8896,2.8908,2.8918,2.8966,2.8984,2.8791,2.8791,2.8791,0,0,2.8561,2.8567,2.8594,2.8633,2.8643,2.8686,2.8622,2.8669,2.8701,2.8648,2.8711,2.8714,2.8731,2.8809,2.8843,2.8814,2.8972,2.8918,2.8927,2.8931,2.8977,2.8995,2.9011,2.8797,2.8796,2.8795,0,0,2.8678,2.8686,2.8746,2.8758,2.8775,2.8767,2.8782,2.8791,2.8791,2.8853,2.8816,2.8853,2.8916,2.893,2.8946,2.9071,2.9041,2.9082,2.9155,2.9203,2.9218,2.9232,2.9278,2.9295,2.9092,2.9092,2.9092,0,2.874,2.8803,2.8779,2.883,2.8849,2.8805,2.8866,2.8879,2.8906,2.892,2.8888,2.8967,2.8975,2.9056,2.9087,2.9101,2.9117,2.9081,2.9218,2.9231,2.9243,2.9287,2.9305,2.9097,2.9097,2.9096,2.9096,0,2.888,2.8924,2.897,2.8998,2.9022,2.9078,2.9064,2.9091,2.9073,2.9069,2.9135,2.9143,2.9178,2.9196,2.9178,2.9276,2.9258,2.9222,2.9164,2.9267,2.9308,2.9325,2.9105,2.9103,2.9101,2.91,0,0,2.9042,2.9058,2.9076,2.9089,2.9106,2.914,2.9194,2.9229,2.9254,2.9274,2.932,2.9375,2.9343,2.9361,2.9344,2.9386,2.9487,2.9345,2.9345,2.9372,2.9598,2.9626,2.9646,2.9467,2.947,2.9472,2.9597,0,2.9159,2.9253,2.9235,2.9326,2.9368,2.9327,2.9375,2.9391,2.9389,2.9425,2.9423,2.9463,2.9416,2.9427,2.9467,2.9466,2.9532,2.9457,2.951,2.9513,2.9509,2.9667,2.9696,2.9813,2.9613,2.9615,2.9617,0,2.9308,2.9336,2.9432,2.9444,2.9461,2.9504,2.9536,2.957,2.9588,2.9584,2.9605,2.9581,2.9637,2.9578,2.9655,2.9604,2.9625,2.9628,2.9632,2.9637,2.9572,2.9677,2.9849,2.9868,2.9642,2.964,2.9638,0,2.9419,2.948,2.9546,2.9558,2.9574,2.9606,2.9614,2.9628,2.9651,2.9679,2.9694,2.9728,2.9747,2.9774,2.976,2.9718,2.984,2.978,2.984,2.984,2.9868,2.9866,3.0047,2.988,2.9879,2.9879,2.9879,0,2.9552,2.9613,2.9596,2.9637,2.9705,2.9684,2.9752,2.9755,2.9769,2.9811,2.9777,2.9817,2.9796,2.9835,2.9824,2.9891,2.9899,2.9899,2.9895,2.9902,2.9903,2.9916,2.9908,2.9884,2.9882,2.9882,2.9881,0,2.9688,2.9679,2.9748,2.9758,2.9762,2.9812,2.982,2.9859,2.9855,2.9909,2.992,2.9914,2.9958,2.9948,2.9995,2.9988,3.0073,3.0059,3.0067,3.0064,3.0125,3.0121,3.0322,3.0349,3.0163,3.0164,3.0166,0,2.9774,2.982,2.9836,2.9861,2.9872,2.9913,2.9937,2.9919,2.9945,2.997,3.0007,3.0048,3.008,3.0152,3.0153,3.019,3.0177,3.0245,3.0182,3.0189,3.018,3.0178,3.0184,3.0258,3.026,3.0262,3.0263,0,2.9929,2.9923,2.9958,2.9993,3.0022,3.0048,3.0071,3.0095,3.0078,3.0109,3.0154,3.0179,3.0229,3.0271,3.0306,3.0314,3.0288,3.0283,3.03,3.0308,3.0312,3.0312,3.0103,3.0279,3.0277,3.0276,3.0275,3.0275,3.0043,3.0084,3.0101,3.0142,3.0158,3.0181,3.0219,3.0221,3.0258,3.0297,3.0284,3.0336,3.0355,3.0399,3.0412,3.0453,3.0427,3.045,3.0456,3.0463,3.0471,3.0304,3.0459,3.0459,3.0458,3.0458,3.0457,0,3.0198,3.0208,3.0246,3.028,3.0313,3.0285,3.0309,3.0339,3.0385,3.0405,3.0438,3.0491,3.0532,3.0537,3.0576,3.0608,3.0597,3.0619,3.0617,3.0621,3.0491,3.0474,3.0628,3.0628,3.0628,3.0628,3.0628,3.0628,3.0283,3.035,3.0346,3.0422,3.0431,3.0482,3.0499,3.052,3.0537,3.0597,3.0632,3.0634,3.0649,3.0689,3.0726,3.0727,3.0743,3.0771,3.0767,3.0646,3.0629,3.0613,3.0597,3.0775,3.0775,3.0893,3.0894,3.0895]},{"header":{"parameterUnit":"m.s-1","parameterCategory":1,"la1":30.2991,"la2":30.254,"lo1":-89.0895,"lo2":-89.0444,"dy":0.0017,"dx":0.0017,"nx":28,"ny":28,"refTime":"2024-08-05T09:00:00:Z","depth":0,"parameterNumber":3,"parameterNumberName":"V-component_of_WINDS"},"data":[0,0,0,0,0,0,0,0,0,0,0,0,0,0,0,0,0,0,0,0,0,0,0,0,0,0,0,0,0,0,0,0,0,0,0,0,0,0,0,0,0,0,0,0,0,0,0,0,0,0,0,0,0,0,0,0,0,0,-1.2623,-1.2623,0,-1.2669,-1.267,-1.267,-1.2681,-1.2681,-1.2681,-1.268,-1.2732,-1.2733,-1.2735,0,0,0,0,0,0,0,0,0,0,0,0,0,-1.2548,-1.255,-1.2623,-1.2623,-1.2624,-1.2669,-1.267,-1.267,-1.2681,-1.2681,-1.2681,-1.268,-1.2731,-1.2733,-1.2735,0,0,0,0,0,0,0,0,0,0,0,0,0,-1.2586,-1.255,-1.2623,-1.2635,-1.2636,-1.2669,-1.267,-1.267,-1.2681,-1.2681,-1.2681,-1.268,-1.273,-1.2733,-1.2735,-1.276,0,0,-1.2743,-1.2744,0,0,0,0,0,0,0,0,-1.2584,-1.2589,-1.2632,-1.2634,-1.2636,-1.2669,-1.2662,-1.2701,-1.2682,-1.2664,-1.268,-1.268,-1.2711,-1.2715,-1.2725,-1.2763,-1.2765,-1.2743,-1.2745,-1.2746,-1.2747,0,0,0,0,0,0,0,-1.2582,-1.2587,-1.2641,-1.2633,-1.2635,-1.2639,-1.2644,-1.267,-1.269,-1.2666,-1.2667,-1.2672,-1.2712,-1.2723,-1.2727,-1.2766,-1.2743,-1.2745,-1.2747,-1.2748,-1.2827,-1.2827,0,0,0,0,0,0,-1.2576,-1.2585,-1.264,-1.2643,-1.2608,-1.2641,-1.2647,-1.2659,-1.269,-1.2694,-1.2672,-1.2672,-1.2719,-1.2724,-1.2728,-1.276,-1.2746,-1.2748,-1.275,-1.2826,-1.2827,-1.2828,0,0,0,0,0,0,-1.2575,-1.2581,-1.2638,-1.2614,-1.2622,-1.2643,-1.2657,-1.266,-1.267,-1.2695,-1.2699,-1.2679,-1.2719,-1.2725,-1.2752,-1.2762,-1.2749,-1.2752,-1.2826,-1.2826,-1.2827,-1.2823,0,0,0,0,0,0,-1.2572,-1.258,-1.2589,-1.2614,-1.2623,-1.2659,-1.2657,-1.2661,-1.2674,-1.2675,-1.2702,-1.2706,-1.2719,-1.2748,-1.2755,-1.2765,-1.2753,-1.2825,-1.2826,-1.2827,-1.2822,-1.2823,-1.2824,0,0,0,0,0,-1.257,-1.2586,-1.2589,-1.2596,-1.2634,-1.266,-1.2665,-1.2678,-1.2675,-1.2685,-1.27,-1.2705,-1.276,-1.2751,-1.2758,-1.2769,-1.2824,-1.2826,-1.2827,-1.2821,-1.2823,-1.2824,0,0,0,0,0,0,-1.2563,-1.259,-1.2593,-1.2618,-1.2637,-1.2662,-1.2674,-1.2679,-1.27,-1.2699,-1.2716,-1.2722,-1.2748,-1.2762,-1.2752,-1.2796,-1.2792,-1.2795,-1.2786,-1.2787,-1.2788,-1.2784,-1.2756,0,0,0,0,0,-1.2564,-1.2582,-1.2605,-1.2625,-1.2634,-1.2652,-1.2664,-1.2673,-1.2693,-1.2701,-1.2719,-1.2739,-1.2761,-1.2775,-1.2796,-1.2824,-1.2831,-1.2836,-1.2837,-1.2838,-1.284,-1.2856,-1.2859,-1.2832,-1.2832,-1.2832,0,0,-1.2568,-1.2584,-1.2595,-1.2624,-1.2639,-1.2659,-1.2659,-1.2679,-1.2694,-1.2705,-1.2731,-1.2745,-1.2769,-1.2797,-1.281,-1.2809,-1.2849,-1.2839,-1.284,-1.2842,-1.2858,-1.286,-1.2863,-1.2833,-1.2833,-1.2833,0,0,-1.2583,-1.2597,-1.2616,-1.2631,-1.2653,-1.2665,-1.267,-1.2694,-1.2703,-1.273,-1.2738,-1.2757,-1.2794,-1.2811,-1.2824,-1.2847,-1.2853,-1.2854,-1.286,-1.2875,-1.2878,-1.288,-1.2888,-1.2891,-1.2856,-1.2856,-1.2856,0,-1.2584,-1.2612,-1.2625,-1.2644,-1.2658,-1.2667,-1.2686,-1.2701,-1.273,-1.2739,-1.2738,-1.2784,-1.2802,-1.2833,-1.2839,-1.285,-1.2856,-1.285,-1.2876,-1.2878,-1.288,-1.2888,-1.2891,-1.2856,-1.2856,-1.2856,-1.2856,0,-1.2613,-1.2632,-1.2645,-1.2671,-1.2686,-1.2705,-1.2722,-1.2736,-1.2743,-1.2756,-1.2784,-1.2804,-1.283,-1.2839,-1.2847,-1.2872,-1.2871,-1.2872,-1.2869,-1.2882,-1.289,-1.2893,-1.2856,-1.2856,-1.2856,-1.2856,0,0,-1.2625,-1.2658,-1.2662,-1.2674,-1.27,-1.2716,-1.2737,-1.2761,-1.2772,-1.2793,-1.2811,-1.2842,-1.2844,-1.2859,-1.2869,-1.2883,-1.29,-1.2883,-1.2884,-1.2886,-1.293,-1.2928,-1.2932,-1.2905,-1.2905,-1.2906,-1.2928,0,-1.2643,-1.2678,-1.2691,-1.2721,-1.2739,-1.2749,-1.2767,-1.2786,-1.2799,-1.2818,-1.2833,-1.2854,-1.2855,-1.2864,-1.2878,-1.2895,-1.2909,-1.2894,-1.2923,-1.2924,-1.2916,-1.2936,-1.2934,-1.2954,-1.2931,-1.2932,-1.2932,0,-1.2669,-1.2688,-1.2719,-1.2743,-1.2751,-1.2767,-1.279,-1.2808,-1.283,-1.2839,-1.2856,-1.2865,-1.2889,-1.2884,-1.2918,-1.2907,-1.292,-1.293,-1.2931,-1.2934,-1.2928,-1.2939,-1.2961,-1.2964,-1.2937,-1.2937,-1.2937,0,-1.2675,-1.2708,-1.2731,-1.2741,-1.277,-1.2781,-1.2793,-1.2815,-1.2828,-1.285,-1.2859,-1.2883,-1.2896,-1.2916,-1.2932,-1.2927,-1.2964,-1.2961,-1.2973,-1.2972,-1.2979,-1.2979,-1.3003,-1.2988,-1.2988,-1.2988,-1.2988,0,-1.2694,-1.2712,-1.2734,-1.2748,-1.277,-1.2784,-1.2806,-1.282,-1.2839,-1.2857,-1.2868,-1.2885,-1.2905,-1.2925,-1.2939,-1.2964,-1.297,-1.2979,-1.2982,-1.2978,-1.2976,-1.2986,-1.2985,-1.2989,-1.2989,-1.2989,-1.2988,0,-1.2703,-1.2718,-1.2744,-1.2768,-1.2775,-1.279,-1.2812,-1.2827,-1.284,-1.2863,-1.2869,-1.2891,-1.2915,-1.2934,-1.2966,-1.2975,-1.3002,-1.3006,-1.2994,-1.2996,-1.3006,-1.3005,-1.3037,-1.3043,-1.3024,-1.3024,-1.3024,0,-1.2714,-1.2728,-1.2754,-1.2766,-1.2778,-1.2798,-1.2812,-1.2828,-1.2842,-1.2868,-1.288,-1.2905,-1.2926,-1.2965,-1.2984,-1.3009,-1.3013,-1.3023,-1.3017,-1.3012,-1.3013,-1.3012,-1.3014,-1.3024,-1.3024,-1.3024,-1.3024,0,-1.2732,-1.2738,-1.2757,-1.2779,-1.2794,-1.2813,-1.2831,-1.2841,-1.2861,-1.2877,-1.2901,-1.2917,-1.2949,-1.2974,-1.3001,-1.3016,-1.3024,-1.3026,-1.303,-1.3025,-1.3018,-1.3022,-1.2996,-1.3025,-1.3025,-1.3025,-1.3025,-1.3025,-1.2742,-1.2755,-1.2775,-1.2796,-1.2812,-1.2829,-1.2844,-1.2859,-1.2879,-1.2905,-1.2914,-1.2939,-1.2962,-1.2999,-1.3014,-1.3035,-1.3035,-1.3041,-1.3042,-1.3044,-1.3043,-1.3015,-1.304,-1.304,-1.304,-1.304,-1.304,0,-1.276,-1.2774,-1.2792,-1.2817,-1.2834,-1.2839,-1.286,-1.2874,-1.2895,-1.2915,-1.2935,-1.2964,-1.2988,-1.301,-1.3035,-1.3048,-1.3053,-1.3055,-1.3054,-1.3057,-1.3042,-1.3035,-1.3051,-1.3051,-1.3051,-1.3051,-1.3051,-1.3051,-1.2772,-1.2794,-1.2803,-1.2835,-1.2848,-1.2872,-1.2883,-1.29,-1.2916,-1.2946,-1.2966,-1.298,-1.3001,-1.3028,-1.3052,-1.3057,-1.3067,-1.3068,-1.3074,-1.3059,-1.3058,-1.3057,-1.3051,-1.3069,-1.3069,-1.3088,-1.3088,-1.3088]}]]